Regional Weather Roundup
Issued by NWS

Home | Current Version | Previous Version | Graphics & Text | Print | Product List | Glossary On
Versions: 1 2 3 4 5 6 7 8 9 10 11 12 13 14 15 16 17 18 19 20 21 22 23 24 25 26 27
000
ASUS45 KBOU 110807
RWRCO

WEATHER ROUNDUP FOR COLORADO
NATIONAL WEATHER SERVICE DENVER/BOULDER CO
100 AM MST SUN DEC 11 2016

NOTE: "FAIR" INDICATES FEW OR NO CLOUDS BELOW 12000 FEET WITH NO
SIGNIFICANT WEATHER AND/OR OBSTRUCTIONS TO VISIBILITY.

COZ001>005-013-030-031-110900-
...NORTHWEST COLORADO...

CITY           SKY/WX    TMP DP  RH WIND       PRES   REMARKS
CRAIG          LGT SNOW  33  30  88 SW13      29.85S FOG     WCI  24
HAYDEN         CLOUDY    30  28  93 W6        29.83F VSB 1/2 WCI  24
MEEKER         MIX PCPN  37  30  75 NW8       29.83S
MOUNT WERNER   NOT AVBL
STEAMBOAT SPGS CLOUDY    31  31  99 CALM      29.82S
WALDEN           N/A     30  28  93 W5        29.81S WCI  25
$$

COZ006>008-011-110900-
...WEST CENTRAL VALLEYS...

CITY           SKY/WX    TMP DP  RH WIND       PRES   REMARKS
GRAND JUNCTION FAIR      30  26  85 SW3       29.88F
MONTROSE       CLOUDY    35  27  72 SE7       29.91F WCI  29
EAGLE          LGT RAIN  35  33  92 S3        29.84F
RIFLE          MOCLDY    29  26  89 CALM      29.86F
DELTA          CLOUDY    37  28  70 NE6       29.89F
NUCLA          FAIR      45  30  57 CALM      29.97F
$$

COZ017>023-064>068-110900-
...SOUTHWEST COLORADO...

CITY           SKY/WX    TMP DP  RH WIND       PRES   REMARKS
DURANGO        FAIR      24  20  84 E5        30.02F WCI  18
CORTEZ         FAIR      32  28  85 E3        30.01F
PAGOSA SPRINGS FAIR      27  23  85 CALM      30.04S
TELLURIDE      CLOUDY    41  28  61 W12G18    30.03S
WOLF CREEK PAS CLOUDY    21  21 100 S15G22    30.09F WCI   8
$$

COZ009-010-012-014-032>034-037-058>063-110900-
...CENTRAL COLORADO...

CITY           SKY/WX    TMP DP  RH WIND       PRES   REMARKS
ASPEN          CLOUDY    35  31  85 CALM      29.82F
BUENA VISTA    CLOUDY    41  28  58 SW12G18   29.83F
COPPER MTN     NOT AVBL
BERTHOUD PASS  SNOW      21  10  63 MISG      29.82F VSB 1/2
COTTONWOOD PAS LGT SNOW  34  30  86 W8G16     29.88F WCI  27
GUNNISON       LGT SNOW  28  26  92 SW3       29.94F FOG
KREMMLING      LGT RAIN  37  34  87 W16G25    29.81R
LEADVILLE      LGT SNOW  29  25  85 NE5       29.84S FOG     WCI  24
MONARCH PASS   CLOUDY    23  21  93 SW32      30.04F WCI   5
SALIDA         FAIR      43  29  56 W15       29.94S
SUNLIGHT       CLOUDY    27  25  93 SW18G32   29.91R FOG     WCI  13
WILKERSON PASS MOCLDY    27  21  80 SW10G20   29.90F WCI  17
$$

COZ069>075-110900-
...SAN LUIS VALLEY/SANGRE DE CRISTO MOUNTAINS...

CITY           SKY/WX    TMP DP  RH WIND       PRES   REMARKS
ALAMOSA        FAIR      32  22  66 CALM      29.93S
LA VETA PASS   FAIR      32  21  64 NE28G52   29.90F WCI  18
SAGUACHE       FAIR      28  19  69 N7        29.94F WCI  21
$$

COZ035-036-038>040-110900-
...NORTHERN COLORADO FRONT RANGE...

CITY           SKY/WX    TMP DP  RH WIND       PRES   REMARKS
DENVER INTL AP MOCLDY    35  26  69 NE9       29.71R WCI  28
DMNS CITY PARK   N/A     38  27  65 N3        29.70R
AURORA         MOCLDY    37  28  72 E8        29.70F
FRONT RANGE AP FAIR      36  28  75 NE8       29.72S
ERIE MUNI ARPT MOCLDY    34  28  78 N6        29.73R WCI  29
BOULDER MUN AP MIX PCPN  41  30  65 W3        29.73R
CENTENNIAL     MOCLDY    38  25  59 S6        29.69S
BROOMFIELD     FAIR      43  30  61 N9        29.72R
FORT COLLINS   FAIR      39  32  75 N18       29.71S
LONGMONT       NOT AVBL
$$

COZ041-046-047-076>085-087-088-110900-
...PIKES PEAK/PALMER DIVIDE AND SOUTHERN FOOTHILLS...

CITY           SKY/WX    TMP DP  RH WIND       PRES   REMARKS
COLO. SPRINGS  MOCLDY    45  23  42 VRB6      29.69F
A. F. ACADEMY  FAIR      50  23  33 W28G40    29.67F
SCHRIEVER AFB  NOT AVBL
ELLICOTT       FAIR     N/A N/A N/A E13       29.68F
FALCON         FAIR      49  21  34 W20G28    29.71F
FORT CARSON    FAIR      45  23  41 E8        29.67R
LIMON          FAIR      23  20  88 NW3       29.70S
MONUMENT HILL  FAIR      43  25  49 W21       29.73F
TRINIDAD       FAIR      32  11  41 W6        29.72F WCI  26
$$

COZ042>045-048>051-090-091-110900-
...NORTHEAST COLORADO...

CITY           SKY/WX    TMP DP  RH WIND       PRES   REMARKS
GREELEY ARPT   MOCLDY    26  23  88 W5        29.73R WCI  20
AKRON          CLOUDY    42  27  55 NW13      29.69R
BURLINGTON     FAIR      29  20  69 W12       29.67S WCI  19
WRAY           CLOUDY    32  28  86 W7        29.66R WCI  26
STERLING       CLOUDY    36  32  87 N17G23    29.71R
HOLYOKE        FAIR      45  32  61 NW13      29.67R
FORT MORGAN    CLOUDY    33  26  73 W5        29.72R WCI  29
$$

COZ086-089-092>099-110900-
...SOUTHEAST COLORADO...

CITY           SKY/WX    TMP DP  RH WIND       PRES   REMARKS
PUEBLO         FAIR      52  24  33 W9        29.65F
LA JUNTA       FAIR      44  21  40 W14       29.65F
LAMAR          FAIR      22  18  85 S3        29.66F
SPRINGFIELD      N/A     46  18  32 W13       29.67F
$$




USA.gov is the U.S. government's official web portal to all federal, state and local government web resources and services.